Regional Weather Roundup
Issued by NWS

Home | Current Version | Previous Version | Text Only | Print | Product List | Glossary Off
Versions: 1 2 3 4 5 6 7 8 9 10 11 12 13 14 15 16 17 18 19 20 21 22 23 24 25 26 27 28 29 30 31 32 33 34 35 36 37 38 39 40 41 42 43 44 45 46 47 48 49 50

000
ASUS45 KCYS 101310
RWRWY

WYOMING REGIONAL WEATHER ROUNDUP
NATIONAL WEATHER SERVICE CHEYENNE WY
600 AM MST SUN DEC 10 2017

NOTE:  "FAIR" INDICATES FEW OR NO CLOUDS BELOW 12,000 FEET
WITH NO SIGNIFICANT WEATHER AND/OR OBSTRUCTIONS TO VISIBILITY.

WYZ001-101400-
YELLOWSTONE NATIONAL PARK

CITY           SKY/WX    TMP DP  RH WIND       PRES   REMARKS
LK YELLOWSTONE   N/A      2  -1  88 CALM      30.60S
W YELLOWSTONE  NOT AVBL

$$
WYZ002>013-054>058-071-098>099-101400-
NORTHERN WYOMING

CITY           SKY/WX    TMP DP  RH WIND       PRES   REMARKS
JACKSON        FOG        9   5  85 N5        30.63F VSB 1/4 WCI   0
CODY           FAIR      30  11  45 CALM      30.38F
GREYBULL       FAIR      10   6  84 CALM      30.43S
WORLAND        FAIR      12   9  87 S7        30.43R WCI   1
SHERIDAN       FAIR      28  10  46 CALM      30.31S
BUFFALO        FAIR      38  -1  19 W8        30.33F WCI  32
GILLETTE       FAIR      32  12  43 W14       30.32R WCI  22
HULETT         FAIR      34  10  37 SW12      30.30S WCI  25
NEWCASTLE      FAIR      30   9  40 N13       30.33R WCI  20

$$
WYZ014>020-022>026-101>103-101400-
CENTRAL WYOMING

CITY           SKY/WX    TMP DP  RH WIND       PRES   REMARKS
BIG PINEY      FAIR      26   3  37 N13       30.50S WCI  15
PINEDALE       FAIR      27   1  33 N9        30.50S WCI  17
DUBOIS         FAIR      37  -8  14 NW22G29   30.46S WCI  27
LANDER         FAIR      20  11  68 CALM      30.42F
RIVERTON       FAIR      16  12  84 NE3       30.44S
CASPER         FAIR      29  14  53 SW24      30.40S WCI  15
DOUGLAS        FAIR      23  14  68 N6        30.37F WCI  16

$$
WYZ021-027>030-104>119-101400-
SOUTHERN WYOMING

CITY           SKY/WX    TMP DP  RH WIND       PRES   REMARKS
EVANSTON       FAIR      23   6  48 CALM      30.57S
FORT BRIDGER   FAIR      27  -1  29 W15       30.56F WCI  16
ROCK SPRINGS   FAIR      25   4  40 SW12      30.51S WCI  14
DIXON          FAIR      10   4  75 E5        30.58S WCI   2
RAWLINS        FAIR      22   8  55 SW6       30.51S WCI  14
SARATOGA       FAIR      12   5  73 CALM      30.51S
LARAMIE        FAIR      19   3  49 W12       30.44S WCI   7
CHEYENNE       FAIR      32   2  27 N7        30.39R WCI  26
TORRINGTON     FAIR      29  12  49 N8        30.36R WCI  21
PINE BLUFFS    FAIR      27   1  33 MISG      30.39R

$$



USA.gov is the U.S. government's official web portal to all federal, state and local government web resources and services.